Lapse_Rate
0.3 0.3 0.2 0.0 -0.3 -0.6 -0.8 -1.0 -1.1 -1.5 -1.7 -2.1 -2.3 -2.6 -2.9 -3.6 -4.3 -4.6 -5.1 -5.4 -5.8 -6.0 -6.5 -6.7 -5.8 -5.7 -2.9 5.4 6.9 2.5 0.7 0.8 3.3 5.4 6.5 6.5 7.5 7.3 6.5 6.7 6.9 6.5 6.6 7.1 7.5 7.5 7.4
0.0 0.2 0.1 -0.1 -0.5 -0.7 -0.8 -1.0 -1.3 -1.5 -1.8 -2.2 -2.6 -2.9 -3.2 -3.7 -4.4 -4.7 -4.9 -5.7 -6.2 -6.6 -6.8 -6.1 -5.9 -5.6 1.6 6.7 4.3 1.8 2.3 3.1 5.1 6.0 6.3 6.5 7.5 7.6 7.1 6.8 6.6 7.0 7.0 7.1 7.3 7.3 7.4
0.2 0.1 -0.1 -0.3 -0.7 -1.0 -1.3 -1.4 -1.6 -1.9 -2.1 -2.5 -2.9 -3.2 -3.4 -3.8 -4.5 -4.9 -5.1 -5.6 -6.4 -6.7 -6.4 -5.7 -5.6 -3.0 4.0 6.6 3.9 1.9 3.1 4.3 4.5 5.8 6.9 6.9 7.2 7.7 7.5 6.6 7.4 7.1 6.5 6.5 6.8 7.0 6.7
0.2 0.1 -0.3 -0.5 -0.8 -1.1 -1.5 -1.7 -1.9 -2.1 -2.4 -2.8 -3.1 -3.4 -3.7 -4.1 -4.7 -5.2 -5.7 -5.9 -6.1 -6.0 -5.2 -5.1 -5.2 -1.0 6.3 3.6 2.7 2.8 3.1 4.6 4.8 5.2 5.4 6.4 6.8 7.1 7.5 7.6 7.0 6.5 6.5 6.5 6.5 6.7 7.0
-0.3 -0.4 -0.6 -0.5 -0.8 -1.3 -1.7 -2.0 -2.2 -2.5 -2.8 -3.2 -3.4 -3.7 -4.2 -4.5 -5.0 -5.6 -5.7 -6.0 -5.5 -4.9 -4.1 -4.3 -0.4 2.7 7.0 1.6 4.9 5.1 4.7 5.9 6.0 6.1 5.8 6.5 6.7 7.3 7.3 6.5 6.5 6.5 6.5 6.5 6.5 6.8 6.5
-0.5 -0.4 -0.6 -0.7 -1.0 -1.5 -2.0 -2.3 -2.6 -3.0 -3.3 -3.6 -3.8 -4.1 -4.5 -5.0 -5.5 -6.1 -5.9 -4.7 -3.7 -3.0 -2.1 -0.8 1.3 5.1 5.9 6.9 5.7 4.9 4.9 6.1 7.1 6.9 6.7 6.9 7.2 6.5 6.5 6.5 6.5 6.5 6.5 6.5 6.5 6.5 6.5
-0.4 -0.6 -0.8 -1.1 -1.4 -1.9 -2.2 -2.6 -2.9 -3.3 -3.8 -4.2 -4.3 -4.6 -5.0 -5.4 -6.2 -6.5 -4.6 1.1 5.2 5.4 3.3 6.5 6.6 6.4 6.5 6.7 6.6 6.1 5.8 6.8 7.2 7.3 6.5 7.0 6.5 6.5 6.5 6.5 6.5 6.5 6.5 6.5 6.5 6.5 6.5
-0.4 -0.6 -0.9 -1.3 -1.7 -2.1 -2.4 -2.7 -3.1 -3.5 -3.8 -4.3 -4.9 -5.1 -5.2 -5.7 -6.5 -6.6 -3.1 5.1 6.4 6.1 6.9 4.6 4.3 4.6 5.0 5.7 7.2 6.4 6.5 7.4 7.0 6.5 6.6 6.5 6.5 6.5 6.5 6.5 6.5 6.5 6.5 6.5 6.5 6.5 6.5
-0.3 -0.5 -0.8 -1.2 -1.5 -2.0 -2.4 -2.9 -3.4 -3.7 -4.0 -4.4 -5.0 -5.5 -5.7 -6.1 -6.3 -4.2 1.8 5.2 3.2 4.6 6.8 6.7 5.3 5.5 6.2 6.5 7.1 7.2 7.5 6.6 6.6 6.5 6.5 6.5 6.5 6.6 6.5 6.5 6.5 6.5 6.5 6.5 6.5 6.5 6.5
-0.3 -0.5 -0.7 -0.9 -1.2 -1.6 -2.1 -2.7 -3.4 -3.9 -4.3 -4.8 -5.3 -5.9 -6.2 -6.8 -2.3 0.8 4.1 2.9 1.7 2.8 6.5 6.5 6.7 6.8 5.6 6.2 6.8 6.3 7.1 7.2 6.7 6.5 6.5 6.5 6.6 6.5 6.5 6.5 6.5 6.5 6.5 6.5 6.5 6.5 6.5
-0.1 -0.2 -0.6 -0.7 -1.0 -1.4 -2.1 -2.7 -3.1 -3.7 -4.2 -5.0 -5.8 -6.6 -6.9 -6.8 -0.3 3.9 3.6 1.2 1.1 5.3 6.5 6.5 6.7 6.1 5.9 7.1 7.2 6.8 6.3 7.1 6.5 6.5 6.5 6.5 6.5 6.5 6.5 6.5 6.5 6.5 6.5 6.5 6.5 6.5 6.5
0.4 0.1 -0.1 -0.3 -0.7 -1.3 -1.9 -2.5 -3.0 -3.7 -4.3 -5.2 -6.0 -7.0 -7.1 -5.3 -4.2 1.6 0.6 1.7 4.9 6.5 6.5 6.5 6.8 6.6 6.5 6.9 6.9 7.1 7.4 6.9 6.8 6.5 6.5 6.5 7.1 6.5 6.5 6.5 6.5 6.5 6.5 6.5 6.5 6.5 6.5
0.6 0.5 0.3 0.2 -0.2 -0.9 -1.6 -2.5 -3.1 -3.7 -4.7 -5.6 -6.5 -7.4 -7.5 -3.6 4.5 -0.1 0.9 5.7 6.5 6.5 6.5 6.5 6.5 6.5 6.5 6.5 6.5 6.5 6.5 6.5 6.5 6.5 6.5 6.5 6.5 6.5 6.8 6.5 6.5 6.5 6.5 6.5 6.5 6.5 6.5
0.8 0.5 0.5 0.5 0.1 -0.9 -1.6 -2.3 -3.3 -3.9 -5.0 -6.2 -7.2 -7.7 -6.6 -2.6 -1.2 -0.4 4.5 6.5 6.5 6.5 6.5 6.5 6.5 6.5 6.5 6.5 6.5 6.5 6.5 6.5 6.5 6.5 6.5 6.5 6.5 6.5 6.5 6.5 6.5 6.5 6.5 6.5 6.5 6.5 6.5
0.9 0.6 0.7 0.7 -0.0 -0.7 -1.5 -2.7 -3.8 -4.3 -5.4 -6.6 -7.0 -1.5 0.2 1.6 -1.1 0.7 6.8 6.5 6.5 6.5 6.5 6.5 6.5 6.5 6.5 6.5 6.5 6.5 6.5 6.5 6.5 6.5 6.5 6.5 6.5 6.5 6.5 6.5 6.5 6.5 6.5 6.5 6.5 6.5 6.5
0.9 0.9 0.9 0.6 0.2 -0.2 -1.1 -2.4 -3.8 -4.7 -5.7 -6.8 -0.6 3.0 4.5 1.3 1.0 5.1 6.6 6.5 6.5 6.6 6.6 6.5 6.5 6.5 6.5 6.5 6.5 6.5 6.5 6.5 6.5 6.6 6.7 6.5 6.5 6.5 6.5 6.7 6.6 6.5 6.5 6.5 6.5 6.5 6.5
1.0 0.9 0.8 0.3 -0.1 -0.3 -0.9 -2.0 -3.5 -4.9 -6.0 -7.0 1.4 6.3 5.3 1.5 3.3 6.1 6.5 6.5 6.5 7.1 7.0 6.5 6.5 6.5 6.5 6.5 6.5 6.5 6.5 6.5 6.5 6.5 6.7 6.5 6.5 6.5 6.5 6.5 6.5 6.5 6.5 6.5 6.5 6.5 6.5
1.5 1.4 1.0 0.5 0.1 -0.4 -1.0 -1.7 -3.1 -4.5 -6.0 -4.6 2.5 6.5 4.2 3.3 6.7 6.9 6.5 6.5 4.9 6.7 7.2 6.6 6.6 6.5 6.5 6.5 6.5 6.5 6.5 6.5 7.1 6.8 6.5 6.5 6.5 6.5 6.5 6.5 6.5 6.5 6.5 6.5 6.5 6.5 6.5
1.3 1.6 1.3 1.0 0.6 -0.1 -0.9 -1.5 -2.5 -4.1 -5.5 -3.3 3.5 4.3 4.2 4.5 6.5 6.5 6.6 6.5 6.8 6.5 6.5 6.5 6.5 6.5 6.5 6.5 6.5 6.5 6.5 6.9 7.1 6.6 6.5 6.5 6.5 6.5 6.5 6.5 6.5 6.5 6.5 6.5 6.5 6.5 6.5
1.3 1.9 1.7 1.4 0.9 0.3 -0.5 -0.9 -2.1 -3.8 -5.3 -2.0 4.1 6.5 6.2 3.8 5.3 6.6 6.5 6.5 6.5 7.1 6.7 6.9 6.5 6.7 6.5 6.5 6.5 6.5 6.5 6.6 7.1 6.9 5.5 6.6 6.5 6.5 6.5 6.5 6.5 6.5 6.5 6.5 6.5 6.5 6.5
1.7 2.0 2.0 1.7 1.3 0.9 0.3 -0.4 -1.6 -3.7 -4.6 0.0 2.8 6.5 6.0 6.5 6.7 6.6 6.6 6.5 6.5 6.5 6.9 7.1 6.5 6.5 6.5 6.5 6.5 6.5 6.5 6.5 6.7 6.2 6.8 6.5 6.5 6.5 6.5 6.5 6.5 6.5 6.5 6.5 6.5 6.5 6.5
1.6 1.8 2.1 2.1 1.8 1.6 1.1 0.4 -1.1 -3.2 -3.3 -0.1 6.2 7.0 5.4 7.1 7.0 6.6 6.5 6.5 6.5 6.5 6.5 6.5 6.5 6.5 6.5 6.5 6.5 6.5 6.5 6.5 6.5 6.6 6.5 6.5 6.5 6.5 6.5 6.5 6.5 6.5 6.5 6.5 6.5 6.5 6.5
1.5 1.4 1.9 2.1 2.1 2.0 1.7 1.3 0.0 -2.0 -1.4 2.4 2.3 2.8 5.8 6.3 6.7 6.5 6.5 6.5 6.5 6.7 6.9 7.1 6.7 6.5 6.5 6.6 7.2 7.4 7.4 7.3 6.9 6.5 6.5 6.5 6.5 6.5 6.5 6.5 6.5 6.5 6.5 6.5 6.5 6.5 6.5
1.5 1.4 1.6 1.9 2.2 2.2 2.1 2.0 1.6 0.1 -0.7 1.9 1.4 2.6 6.8 6.5 6.5 6.5 6.6 6.8 6.5 6.7 6.5 7.0 7.2 6.6 7.0 5.9 6.7 6.7 7.3 7.2 7.0 6.8 7.1 6.5 6.5 6.5 6.5 6.5 6.5 6.5 6.5 6.5 6.5 6.5 6.5
1.6 1.5 1.6 1.7 2.2 2.4 2.4 2.4 2.2 1.4 0.3 2.3 1.6 3.8 5.5 6.5 6.9 6.8 6.8 6.7 7.0 7.2 6.8 6.9 7.3 7.0 5.8 6.9 6.5 6.5 6.5 6.5 6.5 6.5 6.5 6.7 6.5 6.5 6.5 6.5 6.5 6.5 6.5 6.5 6.5 6.5 6.5
1.8 1.6 1.6 1.7 2.0 2.4 2.7 2.7 2.6 2.0 1.0 2.3 2.4 2.2 5.0 7.0 6.6 7.3 6.9 7.1 6.5 6.5 6.5 7.0 7.3 6.3 7.2 6.7 6.5 6.5 6.5 6.5 6.5 6.5 6.6 6.5 6.5 6.5 6.5 6.5 6.5 6.5 6.5 7.1 6.7 6.5 6.7
1.8 1.8 1.7 1.8 2.2 2.6 2.9 3.1 3.2 2.6 2.1 2.5 3.5 2.2 4.6 6.8 6.3 6.7 6.9 6.8 7.4 7.1 6.5 7.0 7.3 7.2 7.2 6.5 6.5 6.5 6.5 6.5 6.5 6.5 6.5 6.5 6.5 6.5 6.5 6.5 6.5 6.5 6.8 7.2 6.5 6.5 7.1
1.9 1.9 1.9 1.9 2.4 2.7 3.0 3.4 3.4 2.9 2.4 2.4 3.8 2.6 5.2 5.2 5.5 5.8 6.7 7.3 7.3 7.4 6.5 7.2 6.9 7.0 6.7 6.5 6.5 6.5 6.5 6.5 6.5 6.5 6.5 6.5 6.5 6.5 6.5 6.5 6.5 7.0 6.8 6.5 6.7 7.3 7.4
2.0 2.1 2.1 2.1 2.6 3.0 3.0 3.4 3.7 3.0 2.6 2.4 4.2 3.1 3.4 5.2 6.6 5.5 6.4 6.6 7.4 8.0 7.8 7.2 7.1 7.0 7.1 6.5 6.5 6.5 6.5 6.5 6.5 6.5 6.5 6.5 6.5 6.5 6.5 6.5 6.8 7.4 7.1 7.7 7.8 7.5 7.5
Wind_Speed
20 20 20 21 20 20 20 20 19 19 20 20 19 18 18 17 16 15 12 11 10 10 10 9 8 8 4 1 1 4 9 13 9 3 2 1 4 1 5 3 2 8 7 4 12 13 14
21 21 21 21 22 22 21 21 21 20 20 20 20 20 19 18 17 15 13 10 9 8 10 10 8 7 2 2 3 2 5 6 4 4 2 1 5 4 2 3 5 6 11 12 11 13 11
21 22 22 22 23 23 24 24 24 23 23 22 22 21 20 19 18 16 13 10 8 7 9 9 7 3 1 3 3 6 6 2 1 1 2 1 2 1 1 2 4 3 12 10 7 7 4
21 22 23 23 24 24 24 24 24 24 23 23 22 21 20 19 18 17 15 11 8 7 7 6 5 2 1 3 8 5 2 2 2 3 3 6 3 4 3 1 3 3 2 2 5 5 7
23 23 23 23 24 24 25 25 25 24 23 23 23 22 21 19 19 16 13 12 6 2 2 2 2 3 2 3 3 5 5 2 1 2 2 4 2 3 1 3 2 4 2 1 1 3 6
23 24 24 25 25 26 25 26 25 25 24 24 24 23 22 20 18 15 13 2 4 4 1 2 3 2 2 2 3 3 3 2 2 2 2 3 2 2 1 2 2 2 2 2 3 2 4
23 24 25 26 27 27 26 26 26 27 27 27 25 24 24 22 19 13 2 2 2 2 1 2 1 1 2 1 5 2 2 3 1 2 4 2 4 6 5 4 2 1 2 6 3 5 6
23 25 26 27 27 27 27 27 27 27 27 27 28 26 23 22 21 3 2 2 2 2 3 2 4 4 4 3 3 3 4 5 2 5 1 3 5 7 2 3 4 7 8 8 7 1 6
23 25 25 26 26 27 28 29 29 29 28 27 26 25 23 20 15 2 2 2 4 1 1 1 3 3 2 6 4 9 9 3 3 4 5 6 3 5 2 2 5 5 7 3 2 3 2
23 24 25 25 26 27 28 29 30 30 31 29 26 23 21 24 2 0 3 2 4 4 1 2 3 2 4 4 2 1 5 3 2 7 3 5 0 4 2 3 2 4 2 2 5 2 2
23 24 25 26 27 28 28 29 30 32 31 30 27 23 19 10 3 3 2 5 5 3 2 2 3 2 2 4 5 2 1 2 4 5 4 2 2 5 4 2 3 3 3 3 3 2 4
22 23 24 26 27 29 29 30 32 32 31 30 27 22 17 2 2 3 5 0 2 2 3 3 3 5 6 1 2 3 5 3 2 4 0 3 2 3 2 2 3 8 4 6 4 1 4
23 22 23 25 27 28 30 31 32 33 32 31 29 22 5 2 1 6 2 2 2 2 1 2 2 3 5 4 4 4 8 9 4 4 4 1 7 3 3 4 4 4 1 2 3 3 6
21 22 24 26 28 29 31 31 33 33 33 32 30 15 8 3 4 6 2 2 3 1 1 2 2 3 6 7 3 3 7 8 4 2 0 3 5 8 6 13 6 5 5 4 5 5 8
22 23 25 27 29 31 33 34 35 36 34 33 21 1 2 4 3 3 2 3 1 2 1 1 3 3 4 3 2 4 6 5 7 14 6 4 3 2 3 1 2 5 5 1 2 2 4
21 23 25 27 29 32 34 35 37 39 35 29 1 1 3 7 0 0 2 2 1 2 3 1 2 1 4 5 7 6 6 2 2 10 8 5 3 0 2 4 6 3 8 3 1 6 11
20 23 26 27 30 33 35 36 38 40 38 17 1 2 4 5 1 3 2 1 2 1 2 1 2 2 2 2 3 4 3 4 4 2 5 6 5 4 3 4 4 3 3 3 0 3 10
20 23 25 27 30 33 36 37 38 38 37 4 2 2 5 2 2 1 2 0 4 4 7 3 3 3 1 1 2 2 3 1 9 3 5 4 2 4 7 2 3 2 8 6 6 5 2
22 23 25 27 29 32 36 38 40 37 24 3 2 1 2 3 3 2 1 2 5 4 6 5 3 4 2 2 2 2 2 0 7 3 2 6 3 4 3 4 3 4 3 4 3 2 12
22 21 24 26 29 32 35 38 40 38 26 1 1 2 4 4 2 3 2 2 3 5 4 3 3 2 2 2 5 2 2 3 5 5 5 4 3 6 10 7 2 5 4 4 7 6 14
22 21 23 25 28 30 33 38 41 39 27 1 5 2 2 2 4 5 1 2 2 2 5 7 3 6 2 0 1 1 1 3 1 7 2 1 4 3 6 7 4 8 10 9 9 14 12
21 22 21 23 25 28 30 35 39 42 22 5 2 1 2 3 2 1 5 3 2 3 5 3 3 6 3 1 2 1 4 0 2 3 2 2 1 1 5 7 7 10 12 14 14 15 15
19 20 21 22 23 26 28 32 35 38 20 4 3 1 2 3 2 1 2 2 2 4 2 5 5 4 3 2 7 8 8 10 5 5 3 2 2 2 12 4 10 13 11 13 12 3 5
20 20 21 21 22 23 25 28 30 30 18 2 2 1 1 3 2 3 2 1 1 2 3 4 5 2 3 10 8 4 5 8 8 11 8 4 3 4 9 8 16 8 3 6 7 4 6
19 20 20 20 20 21 22 24 25 25 22 4 2 2 2 3 2 4 1 1 2 3 3 4 3 3 7 4 3 4 4 5 12 13 11 10 6 6 6 10 16 12 3 3 5 7 7
18 19 19 19 20 19 19 20 21 22 22 3 4 2 2 2 2 2 2 1 2 2 0 1 3 6 3 2 3 4 5 3 4 4 3 7 7 9 4 8 9 5 4 4 3 15 5
17 18 18 18 18 17 17 17 18 19 20 3 2 4 2 2 2 3 1 1 1 1 2 2 5 3 3 2 5 5 6 1 5 6 6 5 4 11 9 9 8 3 6 2 8 5 9
17 17 17 17 16 15 15 15 16 17 17 5 1 5 3 2 3 4 3 3 3 1 1 3 2 2 1 1 2 1 3 1 3 2 3 10 7 7 4 8 12 6 4 4 8 9 10
15 16 15 15 16 15 14 14 13 14 14 8 1 4 4 2 2 2 4 6 3 1 1 0 2 1 1 1 1 1 2 2 1 4 2 5 5 4 6 3 2 4 4 11 9 10 11
Wind_Direction
23 20 15 11 10 7 5 3 359 357 351 350 346 344 341 337 333 332 329 321 316 311 309 310 312 309 293 181 19 349 128 142 160 205 179 100 44 330 42 28 76 38 12 63 122 133 137
20 16 14 11 8 6 3 1 359 355 351 347 343 342 340 337 334 331 325 320 314 311 307 307 311 310 240 156 355 143 139 137 167 191 161 47 9 350 25 15 50 69 82 101 119 124 140
17 13 11 10 7 4 2 359 355 351 348 344 341 338 337 336 334 330 325 320 311 303 300 304 306 289 243 94 303 140 162 212 133 164 39 29 359 343 359 63 15 98 98 105 122 128 126
16 13 10 8 5 2 357 354 351 346 343 339 336 335 336 336 334 330 326 319 303 290 296 286 297 272 116 350 139 144 218 247 250 228 296 322 25 93 12 117 42 44 53 145 147 154 159
12 10 8 5 2 357 352 348 345 342 339 337 335 335 335 335 334 328 326 316 293 241 268 221 284 301 127 146 197 173 192 275 164 204 271 271 58 49 122 130 118 42 8 333 171 190 164
9 6 4 0 357 353 348 345 342 340 338 336 334 334 335 336 331 322 320 252 117 120 191 223 250 252 133 172 151 150 185 185 176 138 86 32 56 182 105 201 80 157 255 278 219 160 198
6 2 359 357 353 350 346 343 341 340 337 336 336 336 336 335 335 316 210 161 218 135 175 261 63 43 310 61 146 154 179 156 94 101 206 80 219 244 269 217 126 131 261 287 282 196 215
4 360 357 354 349 345 342 342 340 339 337 336 334 335 335 334 341 52 214 202 145 54 306 226 249 277 255 293 126 135 173 175 160 197 156 224 260 241 344 177 249 262 278 274 269 181 229
1 358 354 350 346 343 341 341 340 338 336 335 334 334 333 331 329 254 250 227 99 169 277 292 206 215 194 178 200 175 176 138 136 171 193 237 79 119 263 256 247 264 241 237 354 115 180
0 356 351 348 345 343 342 343 340 336 334 335 336 335 333 328 259 159 232 99 312 204 2 146 210 202 146 172 164 92 170 138 120 213 170 264 302 225 241 272 231 322 248 159 160 233 334
360 355 350 347 344 342 342 342 338 333 335 332 333 333 330 324 317 213 76 335 136 211 147 131 139 107 126 188 129 123 218 87 168 158 192 196 180 158 238 259 184 17 65 125 118 127 290
360 353 348 345 343 340 339 339 337 332 333 330 328 327 326 163 221 275 320 213 227 243 130 133 132 158 154 148 95 115 165 74 97 141 202 268 329 256 261 146 163 155 119 85 85 104 259
356 353 349 346 343 340 338 337 335 334 333 330 325 319 278 273 92 329 293 167 223 225 298 107 129 164 182 159 155 152 171 192 199 184 225 214 231 238 202 247 151 189 242 283 252 228 286
356 354 350 348 345 342 339 339 337 336 335 330 326 319 187 239 284 334 198 129 217 137 212 48 83 111 190 168 172 146 151 200 205 154 87 227 215 197 178 219 233 187 221 240 277 281 312
359 355 352 350 347 344 342 343 341 339 338 334 321 155 147 334 232 193 141 193 218 191 21 346 112 155 177 165 202 178 203 213 214 187 211 188 247 305 226 133 261 153 194 16 192 107 263
359 355 353 352 350 348 346 345 343 341 340 337 327 74 36 329 82 144 112 163 143 258 331 203 168 207 160 154 182 192 183 133 243 207 223 181 281 195 69 144 67 248 139 184 222 265 277
1 357 356 352 351 349 349 348 346 344 340 334 277 90 14 348 261 62 164 160 249 327 343 254 140 124 100 148 202 194 143 48 355 73 196 165 234 189 283 221 222 154 200 64 222 279 270
358 1 358 354 352 351 351 350 348 347 343 28 12 86 6 293 61 25 114 86 350 358 20 45 77 69 78 81 153 172 139 37 350 193 158 175 189 238 249 122 343 256 256 242 255 238 253
357 0 357 356 355 353 353 351 347 349 358 324 58 6 4 292 125 96 65 88 43 32 30 20 47 22 8 63 187 93 115 120 9 57 144 171 200 257 249 143 127 228 188 238 266 256 240
355 0 358 358 357 356 356 354 349 351 354 352 54 105 26 52 22 85 105 49 104 35 70 42 33 57 53 58 25 93 95 23 357 37 36 194 182 238 253 290 66 261 243 220 237 269 270
354 357 359 359 359 359 359 356 352 354 351 312 19 75 3 55 48 64 33 20 81 32 17 22 79 50 24 329 27 106 40 335 58 2 65 18 254 223 261 260 268 263 264 270 238 258 268
356 357 357 359 360 0 2 360 358 356 357 73 63 78 72 67 350 62 10 36 55 2 349 16 60 355 19 202 38 41 348 87 338 353 44 5 245 289 270 268 248 260 269 269 265 263 264
359 359 356 357 360 2 5 5 6 6 8 66 27 49 303 2 48 126 54 56 72 337 63 75 2 336 328 89 311 289 278 283 283 316 323 308 241 258 266 296 298 267 245 258 268 241 271
359 358 359 358 360 3 6 9 10 14 26 50 31 304 316 89 77 84 130 347 276 340 288 306 326 264 17 313 279 230 232 255 252 248 238 239 228 261 276 282 266 294 264 252 240 201 203
358 357 358 359 359 1 5 9 11 14 17 51 8 5 34 99 73 126 92 62 305 298 228 261 290 10 321 311 257 249 233 250 243 241 241 226 236 253 248 245 278 268 216 255 267 272 192
355 357 356 358 359 359 2 6 11 12 13 47 37 342 24 129 124 82 91 46 21 355 320 239 339 330 314 251 225 231 225 213 216 183 52 176 225 228 193 244 260 50 66 6 301 266 168
353 354 355 354 356 357 358 2 7 9 10 20 43 10 49 38 174 193 83 46 120 84 291 313 346 341 329 198 217 222 232 295 230 220 191 183 192 215 235 254 264 27 328 304 251 312 333
350 351 352 352 350 355 354 356 0 7 6 12 32 13 18 350 276 223 209 178 146 203 289 19 237 131 343 182 243 175 248 240 273 278 248 225 234 229 223 240 258 27 154 275 342 319 307
348 349 348 347 346 347 350 349 352 7 4 3 30 19 341 237 317 274 269 276 257 146 196 160 2 305 7 40 351 290 260 242 279 245 183 240 261 257 228 251 68 10 319 334 323 301 301